GFSFLT1_con_lsi_000.txt.gz
Lid_Strength_Index
14 14 14 14 14 14 14 14 14 15 15 15 15 16 15 17 17 17 18 18 19 19 19 20 20 20 20 20 19 20 19 19
13 13 14 15 14 14 14 14 15 15 15 15 16 16 16 17 18 18 18 18 19 19 19 20 20 20 20 20 20 20 20 20
11 13 14 14 14 14 13 14 14 14 15 15 16 16 17 17 18 18 19 19 19 19 19 20 20 20 20 21 20 21 21 21
11 12 11 12 13 13 13 14 14 15 15 16 16 17 16 17 18 18 18 19 19 19 19 20 20 20 20 20 21 21 21 21
10 10 11 11 12 13 13 13 14 15 16 16 16 16 16 17 18 18 18 19 19 19 19 20 20 20 20 21 21 21 21 21
10 10 10 12 12 12 12 13 14 15 16 16 16 16 16 18 18 18 19 19 19 20 20 20 21 20 20 20 22 22 21 20
10 11 11 11 11 12 12 13 14 15 15 15 16 17 17 18 18 19 19 20 20 20 21 21 20 17 17 19 21 20 21 21
11 10 11 10 11 12 13 14 15 15 15 16 17 18 19 19 19 19 20 20 21 21 21 21 20 16 15 16 19 19 20 19
10 10 10 9 11 12 15 15 15 15 16 17 18 18 19 19 19 19 20 21 21 21 21 21 20 14 14 15 18 18 18 18
9 9 10 11 12 14 17 17 17 16 16 17 18 18 20 20 19 20 20 21 21 21 21 21 21 14 14 14 18 19 19 19
10 10 10 11 14 16 18 18 17 17 16 18 18 18 19 19 20 20 20 20 21 22 21 21 22 14 13 15 19 20 20 19
11 11 10 12 15 14 17 18 18 18 19 20 19 19 19 20 20 20 21 21 21 22 22 22 22 18 15 14 19 20 21 20
12 12 11 11 14 14 15 17 20 20 21 21 20 20 20 21 21 22 21 22 23 24 24 22 21 21 16 15 16 17 21 21
12 12 11 10 14 15 14 19 21 19 20 20 21 21 21 21 22 23 22 22 24 23 23 23 22 21 17 15 15 16 19 19
15 15 14 12 12 13 13 18 19 19 20 21 21 22 22 22 22 22 22 22 23 23 23 23 23 22 19 18 17 16 17 18
18 18 18 17 14 12 12 17 19 20 20 21 21 22 22 21 22 21 21 20 22 21 21 22 22 21 18 19 21 21 20 27
19 20 19 18 18 17 13 17 18 20 21 22 22 22 22 22 23 18 18 18 17 17 19 19 18 17 17 16 16 16 17 29
21 21 22 22 22 21 19 16 17 18 19 21 22 23 23 23 24 24 20 17 16 16 17 17 16 15 15 14 15 15 21 30
22 23 24 25 25 22 20 18 17 18 18 20 21 22 22 23 23 22 22 21 20 16 17 16 15 15 15 15 16 23 26 32
24 25 24 25 25 22 20 18 17 18 19 21 21 21 21 22 22 21 21 21 20 20 18 16 15 15 15 16 24 26 29 31

GFSFLT1_con_lsi_006.txt.gz
Lid_Strength_Index
11 12 14 14 15 15 15 15 15 15 15 15 15 15 15 16 16 16 16 17 18 17 18 18 18 18 18 19 19 19 19 19
12 12 12 13 14 15 15 15 16 16 15 16 16 16 16 16 16 16 17 17 18 17 18 18 18 18 18 18 19 19 20 20
13 12 12 12 11 12 14 14 15 15 15 16 16 16 17 16 16 16 17 17 17 17 18 18 18 18 18 19 19 20 20 20
13 13 12 12 12 12 12 12 13 13 15 15 16 16 16 16 16 17 17 17 17 18 18 18 18 18 18 19 19 19 20 20
14 13 12 12 12 13 13 13 13 14 15 15 15 15 14 14 15 17 16 17 17 17 17 17 18 18 18 19 19 19 19 19
13 13 12 12 13 13 13 13 14 14 14 13 14 15 15 15 15 17 17 17 17 18 17 18 18 18 18 18 19 19 20 20
12 11 12 12 13 14 13 13 14 14 14 13 13 15 16 15 16 17 17 17 17 18 18 18 18 15 15 17 19 19 20 21
13 13 13 12 12 14 13 12 13 13 13 13 14 15 14 16 17 17 17 17 18 18 18 18 18 15 14 15 18 19 20 20
14 14 14 14 13 13 12 13 13 13 13 14 14 15 16 18 17 18 18 18 18 17 17 18 18 15 14 14 18 19 20 20
13 14 14 14 14 14 15 14 13 13 13 14 15 15 15 17 17 17 18 18 17 17 17 18 18 15 13 14 19 19 20 20
13 14 14 14 13 15 16 16 16 15 14 14 15 16 16 17 18 18 16 17 17 17 17 18 18 15 13 15 18 20 20 20
13 14 13 12 14 16 16 17 15 15 16 14 13 15 16 16 19 19 18 19 19 19 19 19 19 17 13 13 18 19 20 20
14 14 14 13 14 15 16 15 16 16 16 15 15 15 16 17 18 19 19 19 21 21 22 21 19 17 13 12 16 17 19 20
15 15 14 15 15 17 16 17 18 18 18 18 17 15 15 17 17 19 19 20 22 21 22 21 20 18 14 12 15 15 19 19
15 16 16 15 16 17 17 17 19 21 21 20 20 17 15 17 17 18 19 20 20 21 21 21 21 20 17 14 14 16 18 17
15 15 16 16 17 17 18 19 21 21 21 22 21 20 17 16 16 17 17 17 19 19 19 20 21 20 17 15 16 17 19 18
15 16 17 18 19 19 19 21 22 23 22 22 21 20 19 17 17 14 15 15 15 15 17 18 17 17 16 14 14 15 15 19
18 19 20 20 21 21 21 22 23 24 24 23 22 22 20 17 19 19 18 14 14 14 14 15 17 16 16 14 13 14 15 21
21 22 22 23 23 22 22 23 23 23 23 23 23 22 20 18 18 18 19 20 18 14 14 13 14 15 15 13 12 15 17 22
24 24 24 25 25 24 24 24 24 23 23 22 21 20 19 18 16 17 18 19 19 18 15 13 13 14 14 13 15 17 22 22

GFSFLT1_con_lsi_009.txt.gz
Lid_Strength_Index
13 13 12 12 12 12 12 13 13 14 14 14 14 14 14 15 15 15 15 15 16 15 15 16 16 16 16 16 16 16 16 16
13 12 12 12 12 12 12 12 13 13 13 14 14 14 14 15 15 15 15 16 16 16 16 16 16 16 16 16 16 17 17 17
13 12 11 12 12 12 12 12 13 13 13 13 14 14 15 15 15 15 15 15 15 16 16 16 16 16 17 17 17 17 18 18
12 12 11 12 12 12 12 13 13 13 14 14 14 14 14 14 14 15 15 15 15 16 16 16 16 16 16 16 17 17 17 17
13 12 11 12 12 11 12 12 13 13 14 14 14 14 13 13 14 15 15 15 15 16 16 16 16 16 16 17 17 17 17 17
12 13 12 12 12 12 12 12 12 14 14 14 14 14 14 14 14 14 15 15 15 15 16 16 16 16 16 17 16 17 17 17
11 13 13 13 14 13 14 13 13 13 14 14 14 15 15 14 14 14 14 14 14 15 16 16 16 14 14 16 16 17 17 18
11 13 13 13 13 14 14 14 15 14 14 14 14 15 15 15 16 16 15 14 15 15 16 16 16 13 13 14 16 17 17 18
11 13 13 12 13 13 14 16 16 15 15 15 15 16 15 15 15 15 15 15 15 15 15 16 16 14 13 13 16 17 17 18
11 12 12 13 13 13 13 15 15 15 15 16 17 17 15 16 16 15 15 15 15 15 15 16 15 14 13 12 15 17 17 18
11 12 12 12 12 13 13 15 15 15 15 16 17 17 16 16 16 15 16 16 15 16 15 15 15 13 12 12 13 16 17 18
12 13 13 13 13 13 14 15 14 15 15 16 17 17 17 16 15 16 16 16 17 17 16 16 16 15 13 12 13 16 17 18
12 13 12 12 13 14 15 14 15 16 17 17 18 18 17 17 16 15 16 17 17 17 17 17 16 15 14 12 10 14 17 18
13 13 13 13 13 15 15 15 16 18 18 18 18 19 18 19 18 16 14 16 16 17 17 17 17 16 14 13 11 14 17 17
13 14 15 14 14 14 15 15 18 19 20 20 20 20 20 19 18 17 15 15 16 16 17 17 18 18 17 15 13 14 15 16
15 15 16 15 16 16 17 18 19 20 20 21 21 21 21 20 19 17 15 14 15 16 16 17 18 18 16 16 14 15 16 18
17 18 18 19 19 19 19 20 21 22 22 22 22 22 22 22 21 17 15 13 11 12 13 15 14 14 14 13 12 13 15 18
20 20 21 22 23 22 22 22 23 24 23 23 23 23 23 22 22 22 18 13 11 11 12 12 13 13 12 12 12 12 14 19
22 23 23 24 24 23 23 24 24 25 24 24 24 24 23 22 22 21 20 19 16 13 12 12 12 12 12 12 12 14 15 18
22 24 25 26 27 25 25 25 25 25 25 25 24 24 23 22 22 20 20 19 16 15 14 13 10 10 12 11 14 14 16 18

GFSFLT1_con_lsi_015.txt.gz
Lid_Strength_Index
11 10 10 10 10 10 11 12 12 12 11 11 11 11 11 10 11 11 11 11 11 11 10 11 11 11 11 11 11 11 12 12
11 11 11 11 11 11 11 11 12 11 11 11 12 12 12 12 12 12 11 11 11 11 11 11 11 11 12 12 12 12 12 12
11 12 12 12 12 12 12 12 12 12 12 12 12 12 13 13 13 13 13 12 12 12 12 12 11 11 12 12 13 13 13 13
12 12 13 13 12 13 12 12 11 11 12 12 12 12 13 13 14 13 13 13 12 13 13 12 12 12 12 12 13 13 13 13
13 12 11 12 11 12 12 12 10 11 11 11 12 12 13 14 14 13 13 12 12 12 12 12 12 13 13 13 13 13 13 13
12 12 11 11 10 10 10 10 10 11 11 11 11 11 11 13 14 12 11 12 11 12 12 12 13 13 13 13 14 14 14 13
12 12 11 11 10 10 10 10 10 11 11 11 11 11 12 12 12 13 12 11 12 13 13 13 12 12 12 12 13 13 14 14
10 9 9 9 9 9 10 9 10 11 11 11 12 12 12 12 13 13 13 12 12 13 13 13 12 11 11 11 13 13 14 14
8 8 8 8 8 9 9 10 11 11 11 11 11 12 12 13 14 14 14 13 13 13 12 13 13 11 10 11 12 13 13 13
7 7 8 8 8 9 10 10 11 11 11 11 11 12 12 13 14 14 14 14 14 14 14 13 13 11 11 11 12 13 13 13
6 7 7 8 8 10 11 11 11 11 11 11 11 12 13 13 13 13 13 14 14 15 14 14 15 12 11 11 12 12 13 13
7 8 9 9 10 12 12 13 12 12 13 13 13 14 14 14 14 14 15 15 16 16 16 16 15 14 11 10 12 12 12 12
10 10 10 11 12 14 14 13 14 16 17 17 18 17 17 18 17 17 18 18 18 18 17 15 14 13 11 10 9 10 12 12
12 13 12 13 13 16 15 16 17 19 20 20 20 20 20 20 20 20 20 20 20 19 19 18 15 14 11 10 9 9 10 11
13 14 15 14 14 16 16 17 20 21 21 21 21 21 21 21 20 21 21 21 21 21 20 19 18 16 14 12 11 10 10 10
15 15 16 15 16 17 18 19 21 22 22 22 22 22 22 22 22 22 21 21 22 21 20 20 20 18 14 13 13 11 11 11
16 16 17 17 18 18 19 20 23 23 23 23 23 22 22 22 22 19 18 17 16 16 17 17 15 13 13 12 12 11 10 10
17 17 18 19 20 20 20 22 24 25 24 24 23 23 23 22 23 23 21 18 17 17 16 16 15 14 13 12 11 10 10 11
18 19 20 21 21 19 20 22 24 24 24 24 23 22 22 22 21 21 22 23 22 19 18 17 16 15 13 11 10 12 11 10
20 21 20 20 21 19 20 22 23 24 24 23 22 21 21 20 19 19 20 20 21 20 19 18 16 15 13 11 12 11 10 10

GFSFLT1_con_lsi_021.txt.gz
Lid_Strength_Index
13 13 13 13 13 13 13 14 14 14 13 13 14 14 14 14 15 15 15 15 15 15 14 14 14 14 14 15 15 15 15 15
14 13 13 13 12 13 13 13 13 13 13 13 13 14 14 15 15 15 15 14 14 15 15 15 15 14 14 14 14 15 14 14
11 12 12 12 12 13 13 13 13 13 14 14 14 14 15 15 15 15 16 15 15 14 15 15 15 14 13 13 14 14 14 13
12 13 13 13 13 13 12 12 12 12 14 14 15 15 14 15 14 15 15 15 16 15 16 15 15 15 14 14 13 13 13 13
13 13 13 12 12 12 12 12 12 12 13 14 14 14 14 15 16 15 14 15 15 15 15 15 15 14 14 14 13 13 12 13
13 13 13 13 12 12 12 12 12 12 13 13 13 13 13 13 13 14 13 13 14 14 14 13 14 14 14 13 13 13 12 12
12 12 12 12 12 11 11 11 11 12 12 11 11 11 12 12 12 12 12 13 13 13 14 15 14 11 11 11 13 12 12 12
12 11 11 11 10 10 10 11 12 13 12 12 12 12 11 11 12 12 13 13 13 14 14 14 14 11 11 11 12 13 13 12
10 10 10 10 10 10 10 12 11 12 13 13 12 13 13 13 14 14 14 14 14 14 14 14 13 11 11 11 13 13 13 13
9 9 10 11 11 11 12 12 12 13 13 13 14 16 16 17 17 16 17 17 17 16 16 16 16 13 12 12 13 14 15 14
9 10 11 13 12 13 13 15 15 14 14 15 16 18 18 18 19 19 19 19 19 19 19 19 19 16 15 14 16 16 16 15
11 12 13 13 13 15 15 16 15 16 16 17 18 19 20 20 20 21 21 21 22 22 21 21 20 19 16 15 16 16 17 16
12 13 13 14 15 16 16 15 17 18 19 20 21 21 20 22 21 22 22 23 23 23 22 21 20 17 16 15 14 14 17 18
14 15 14 16 17 18 17 17 18 22 23 22 21 21 20 22 22 23 23 23 23 23 23 22 20 19 16 15 14 14 16 17
17 18 19 18 17 19 19 18 24 25 22 21 21 21 22 21 22 23 24 24 24 24 23 22 19 18 16 17 18 16 16 16
18 18 18 18 19 21 19 22 23 21 20 20 21 22 22 21 22 22 22 21 21 20 19 19 18 16 13 13 14 14 15 16
18 19 20 22 21 21 23 25 24 21 20 21 21 22 22 22 22 18 17 16 16 15 16 16 13 12 11 11 11 10 11 15
19 20 22 23 22 22 23 26 25 22 21 21 22 22 23 23 23 24 20 16 16 16 15 14 13 11 11 10 10 10 11 15
21 23 25 25 24 22 24 26 26 24 22 22 23 22 23 23 22 22 23 23 22 17 16 14 14 13 11 11 10 14 14 16
24 23 25 26 24 24 25 25 26 23 22 23 23 22 22 22 22 22 22 22 22 20 18 18 15 14 14 13 16 16 16 16

GFSFLT1_con_lsi_027.txt.gz
Lid_Strength_Index
14 14 14 14 15 15 15 15 15 14 14 14 14 14 14 15 15 15 15 15 15 15 16 16 16 15 15 15 16 16 16 15
14 14 14 14 14 14 14 14 14 14 14 14 14 14 14 14 14 15 15 14 14 14 14 15 15 15 15 16 15 16 16 16
14 14 14 14 14 13 13 13 14 13 14 14 14 14 14 15 14 14 14 14 14 14 14 15 15 15 15 15 15 15 15 15
14 14 14 14 13 14 13 13 13 13 13 14 14 14 15 14 14 14 14 14 14 14 14 15 15 15 15 15 15 15 15 15
14 14 14 14 14 14 14 13 13 13 14 14 14 14 14 14 14 14 14 15 15 15 15 15 15 15 15 15 15 15 15 15
12 13 14 14 14 14 14 13 13 14 14 14 14 14 14 14 14 14 14 15 15 15 15 15 15 14 14 14 15 15 15 15
12 12 13 13 13 13 13 13 13 14 15 14 14 14 14 14 14 14 14 15 15 15 15 16 15 13 12 13 14 14 15 16
12 13 13 13 13 14 13 14 15 15 16 15 14 15 15 15 15 15 16 16 16 16 16 17 17 14 13 13 15 15 16 16
13 13 13 13 13 13 13 14 14 15 16 15 15 16 16 17 17 17 17 17 18 18 18 18 17 15 14 14 15 16 16 16
12 13 14 13 13 13 14 13 14 14 14 15 16 18 18 20 19 18 19 19 19 18 19 20 20 16 15 15 17 17 17 17
12 13 13 14 13 13 14 15 15 14 15 16 17 21 21 19 20 19 20 19 19 19 20 20 21 17 15 15 16 18 17 16
12 13 13 13 14 14 15 16 15 16 17 18 18 20 21 21 20 21 21 20 22 21 21 21 20 19 15 14 16 17 18 17
12 12 14 14 14 15 16 16 17 18 19 20 23 22 21 26 23 23 23 24 23 23 22 20 19 17 15 14 13 13 16 17
12 14 14 15 16 17 16 17 19 21 25 26 24 22 22 25 23 23 24 24 23 22 22 21 18 18 15 13 13 13 14 14
14 15 16 18 16 18 18 18 23 23 24 23 24 23 23 21 20 22 22 23 22 22 22 19 17 16 15 16 15 13 13 13
14 15 17 18 18 19 19 21 23 23 22 23 23 24 22 21 21 20 19 18 18 17 16 17 17 16 13 12 13 13 12 12
17 17 19 20 20 20 22 23 24 22 21 22 22 22 21 21 21 16 14 13 13 12 13 15 13 12 12 12 11 11 12 16
18 19 20 21 21 20 24 25 26 24 23 23 21 22 22 22 23 23 19 14 15 14 14 13 13 13 12 12 13 15 16 23
20 22 24 24 23 21 27 27 26 24 23 25 23 24 25 23 23 23 24 24 22 18 16 15 14 13 14 14 18 23 22 24
24 26 25 26 22 24 26 25 26 25 23 23 25 24 23 23 22 23 23 24 24 22 20 19 16 15 16 17 25 24 24 23

GFSFLT1_con_lsi_030.txt.gz
Lid_Strength_Index
15 15 15 16 16 16 16 16 16 15 15 15 15 15 16 15 15 15 15 15 15 15 15 15 15 16 16 16 16 16 16 15
15 15 15 15 16 16 16 15 15 15 15 14 14 15 15 15 15 15 15 15 15 15 15 15 15 15 16 16 16 16 16 16
14 14 15 15 15 15 15 15 14 14 14 14 14 14 15 15 15 15 15 15 15 14 15 15 15 15 16 16 16 16 16 16
15 15 15 15 15 14 14 13 13 14 14 14 14 15 15 15 15 15 15 15 15 15 16 16 16 16 16 16 15 15 15 15
15 15 15 14 14 14 14 13 13 13 14 14 14 15 15 15 15 16 16 16 17 17 17 16 16 16 15 15 15 15 15 15
13 14 14 14 14 14 14 14 13 14 14 14 14 15 15 16 16 17 16 17 16 16 16 16 15 14 14 14 14 14 15 14
12 12 12 13 13 13 14 13 13 14 14 15 15 15 16 17 17 16 16 16 16 16 16 16 15 13 12 12 14 14 15 16
12 12 11 12 12 13 13 13 15 15 17 17 17 17 17 17 16 16 17 16 17 17 17 17 17 13 12 12 14 15 15 16
11 13 12 13 13 13 13 15 15 16 18 17 17 18 17 17 17 17 17 18 18 18 18 18 17 14 13 13 14 15 16 16
13 13 14 13 13 14 15 15 16 16 16 17 17 18 18 20 19 19 19 19 20 18 19 20 19 15 14 14 15 16 16 16
12 13 13 13 14 15 16 16 17 16 15 16 17 20 21 19 20 20 21 19 18 19 19 20 20 16 14 13 15 17 16 15
13 13 13 14 15 16 16 16 16 16 17 17 18 20 21 21 21 23 23 20 22 21 21 21 19 19 14 12 13 14 15 15
13 13 14 15 15 16 16 16 17 18 18 19 20 21 20 26 25 25 25 25 24 24 22 19 18 16 14 11 11 11 14 15
13 14 15 16 14 15 16 17 18 20 20 22 22 20 20 25 23 24 26 25 23 21 21 20 17 17 12 11 11 10 12 12
16 16 15 16 15 17 17 18 22 24 21 20 21 20 21 20 20 24 25 23 22 22 21 20 16 15 14 14 12 11 12 11
14 13 14 17 18 19 19 20 22 23 21 20 20 21 21 21 20 20 20 19 21 18 16 16 16 15 11 11 12 12 12 14
15 15 16 17 19 21 22 22 22 21 20 20 20 20 20 20 21 16 13 11 10 10 12 14 12 11 11 10 11 11 13 20
17 18 19 20 20 22 24 24 23 23 20 20 20 21 21 21 22 23 19 14 13 13 12 12 12 12 11 11 12 15 17 27
18 19 20 22 22 23 24 25 24 23 21 22 21 22 23 23 23 22 23 24 22 17 15 13 13 12 12 13 17 24 24 30
19 22 23 24 23 25 25 23 23 22 22 22 22 22 22 22 22 23 23 24 24 22 19 19 16 14 16 16 29 26 25 24

GFSFLT1_con_lsi_033.txt.gz
Lid_Strength_Index
15 16 16 16 16 16 16 16 15 15 15 15 15 15 15 14 14 14 14 14 13 14 14 14 14 14 14 14 14 15 14 14
15 15 15 16 16 16 16 16 15 15 15 15 14 14 14 14 14 14 14 14 14 14 14 14 15 15 15 15 14 15 15 14
14 14 15 15 16 16 16 15 15 15 14 14 13 13 14 14 14 14 14 14 14 15 15 15 15 15 15 15 15 15 15 15
14 15 15 15 15 15 15 15 14 14 14 14 13 14 14 14 14 14 15 15 16 16 16 16 16 16 16 15 15 15 15 15
15 14 15 15 15 15 15 14 14 13 13 13 13 13 14 14 15 15 15 16 16 16 16 16 16 16 15 15 15 14 14 13
14 15 15 15 15 14 14 14 13 13 13 13 13 14 14 15 16 16 16 16 17 17 17 17 16 14 14 13 13 13 13 13
14 14 15 14 14 14 13 13 13 12 12 13 13 14 15 16 16 16 17 17 17 17 17 17 15 13 12 11 13 13 14 14
13 13 13 13 12 12 12 13 13 13 14 15 15 15 16 17 17 18 18 17 17 17 17 17 16 13 12 11 13 13 14 15
12 12 12 12 12 12 12 13 13 14 15 16 16 17 18 18 18 18 18 18 17 17 17 17 16 13 12 12 13 14 14 14
12 12 13 13 13 13 14 14 14 14 15 16 17 18 18 19 18 18 18 18 18 17 18 18 18 14 12 12 13 14 14 14
13 13 13 13 13 14 14 15 15 14 15 16 17 19 19 18 18 18 19 18 18 18 18 19 19 16 13 12 13 14 14 13
13 13 13 13 14 14 15 15 14 16 16 17 17 18 18 19 19 20 20 19 21 20 20 19 19 18 13 12 12 13 13 12
13 13 13 14 15 15 15 15 16 16 17 18 20 18 19 22 21 22 22 22 22 22 21 18 17 15 13 11 10 10 12 12
13 13 13 15 14 14 14 16 17 18 20 21 21 20 20 22 21 20 21 22 21 20 20 18 16 15 12 10 10 9 10 10
15 15 14 16 15 14 16 17 19 21 21 21 21 20 21 19 19 21 21 21 20 20 20 18 17 15 13 13 11 9 9 11
15 14 13 16 16 18 18 19 20 21 20 20 21 21 19 19 18 18 18 19 22 20 19 18 15 14 10 9 10 10 11 16
15 15 16 18 19 19 20 19 20 20 20 20 20 19 19 19 19 16 13 12 11 9 10 11 10 10 9 9 8 9 11 19
15 17 19 19 19 20 20 20 20 21 20 20 19 19 19 20 20 21 18 15 13 11 10 10 10 9 10 9 10 13 16 23
21 22 23 22 20 21 22 23 24 24 20 21 20 20 21 21 21 21 22 23 21 17 14 12 11 11 10 11 15 22 22 24
23 24 23 24 25 27 26 25 26 24 23 22 22 22 21 21 21 22 22 22 22 21 19 17 14 13 13 15 23 25 24 23

GFSFLT1_con_lsi_036.txt.gz
Lid_Strength_Index
14 14 14 14 14 14 13 14 13 13 13 13 13 13 13 13 13 13 13 13 13 12 12 12 12 12 12 12 12 12 11 12
13 13 14 14 14 14 13 13 13 13 13 12 13 13 12 13 13 13 13 12 13 13 13 13 13 13 12 12 12 12 12 12
12 13 14 14 14 14 13 13 13 12 12 12 12 12 12 12 12 12 12 13 13 13 13 13 13 13 13 13 13 13 13 13
12 12 13 13 14 13 13 13 12 12 12 12 12 12 12 12 12 13 13 13 13 13 13 14 14 13 13 13 13 13 13 13
11 11 11 12 12 13 13 12 12 12 12 12 12 12 11 11 12 13 13 13 13 13 14 14 14 14 13 13 13 13 12 12
11 11 11 11 12 12 12 12 12 12 12 11 11 11 11 12 13 13 13 13 13 14 14 14 14 14 13 12 12 12 12 12
11 10 10 11 11 11 12 12 12 12 11 10 10 11 12 12 13 13 14 14 14 15 15 15 14 14 12 11 11 11 12 12
11 11 10 10 10 11 11 11 11 11 10 10 10 12 12 13 14 14 14 15 15 15 15 14 14 13 12 11 11 12 12 12
10 10 10 10 11 10 10 11 11 10 11 11 11 12 13 14 14 14 14 14 14 14 14 14 14 13 12 11 11 12 12 12
10 9 11 11 10 11 12 11 11 11 11 11 12 13 14 15 14 14 14 14 14 14 14 15 15 14 12 12 12 12 12 11
12 12 11 11 11 12 11 11 11 11 11 11 12 13 14 14 14 13 14 14 14 14 14 15 16 14 13 11 11 12 11 11
13 12 11 11 12 12 11 12 10 11 11 13 13 14 14 14 14 15 15 15 16 16 15 15 15 14 12 11 11 11 11 10
12 12 11 11 12 11 12 10 12 12 13 14 15 14 15 16 16 16 16 17 16 16 15 14 14 13 12 10 10 9 10 10
12 12 12 12 12 11 10 12 14 14 15 16 16 15 16 16 16 15 15 15 14 14 14 13 13 12 11 10 10 9 9 9
13 13 12 12 12 11 13 14 15 15 16 16 17 16 17 15 15 15 14 14 14 14 14 13 13 12 11 10 9 8 8 9
13 12 11 11 12 12 14 15 15 15 16 15 16 17 15 15 14 14 13 13 14 14 14 13 12 11 9 8 8 7 8 10
13 12 11 13 13 15 15 15 15 15 15 15 15 15 15 14 14 13 12 11 10 9 9 9 9 8 8 7 7 7 9 13
12 13 13 14 15 17 17 16 16 14 14 15 15 15 14 15 15 15 13 12 11 11 10 9 8 8 8 8 8 10 12 15
16 17 17 17 18 18 17 17 17 16 17 14 14 14 14 15 15 15 16 16 15 14 13 12 11 9 9 8 10 14 15 17
19 20 19 19 20 20 20 19 18 17 16 16 16 16 16 16 16 16 17 17 17 16 15 15 13 12 10 11 15 17 18 18